www.pogodaiklimat.ru

Погода и климат >> Архив погоды >> Сербия >> Белград аэропорт


ПОГОДА в Белград аэропорту

АРХИВ ПОГОДЫ в Белград аэропорту

Время (UTC), дата Ветер
(напр.,м/с)
 
Видим.   Явления Облачность Т
(С)
Тd
(С)
f
(%)
Тe
(С)
Тes
(С)
Комфортность P
(гПа)
Po
(гПа)
Тmin
(С)
Tmax
(С)
R
(мм)
R24
(мм)
S
(см)
13 9.07 СЗ 1 20 км 8/4 1500 м
[Cu hum Ci fib]
+24.2 +14.0 53 +27 +35 жарко 1014.1 1002.8
14 9.07 СЗ 2 20 км 8/3 1500 м
[Cu hum Ac trans Ci fib]
+24.8 +13.9 51 +27 +32 жарко 1013.9 1002.6
15 9.07 СВ 2 20 км 9/1 1500 м
[Cu hum Ac trans Ci sp]
+24.2 +14.5 55 +27 +30 жарко 1013.5 1002.2
16 9.07 С 3 20 км 9/0
[Ac trans]
+23.4 +14.9 59 +27 +29 душно 1013.0 1001.7
17 9.07 СВ 2 20 км 9/0
[Ac As]
+23.1 +15.1 61 +27 +27 душно 1013.1 1001.8
18 9.07 СВ 1 10 км слаб. дождь 9/5 1200 м
[Sc Ac As]
+21.3 +15.8 71 +25 +25 комфорт 1013.1 1001.7 +25.2 0.0
19 9.07 З 1 10 км в посл. час дождь 8/4 1200 м
[Sc Ac trans]
+20.2 +16.7 80 +24 +24 комфорт 1013.8 1002.4
20 9.07 З 1 10 км 8/4 1500 м
[Sc Ac trans]
+20.2 +16.9 81 +24 +24 комфорт 1014.3 1002.9
21 9.07 СЗ 1 10 км {дождь} 8/4 1500 м
[Sc Ac trans]
+20.0 +15.7 76 +24 +24 комфорт 1014.5 1003.0
22 9.07 СЗ 1 10 км 8/3 1500 м
[Sc Ac trans]
+20.0 +15.8 77 +24 +24 комфорт 1014.3 1002.8
23 9.07 С 1 10 км 8/0
[Ac trans]
+19.3 +15.6 79 +22 +22 комфорт 1014.0 1002.5
00 10.07 З 1 10 км {дождь} 5/0
[Ac trans]
+18.4 +16.1 86 +20 +20 1013.8 1002.3 0.1
01 10.07 СЗ 2 10 км 5/0
[Ac trans]
+17.5 +16.1 91 +18 +18 1013.7 1002.2
02 10.07 СЗ 2 10 км 8/0
[Ac trans]
+17.4 +16.0 91 +18 +18 1013.6 1002.1
03 10.07 З 1 10 км 8/4 1200 м
[Sc Ac trans]
+17.9 +16.1 89 +19 +19 1013.7 1002.2
04 10.07 З 1 10 км в посл. час дождь 9/4 1500 м
[Sc Ac As]
+17.5 +16.1 91 +19 +19 1013.7 1002.2
05 10.07 СЗ 2 10 км 9/4 1200 м
[Sc Ac As]
+17.5 +16.2 92 +18 +19 1013.9 1002.4
06 10.07 З 2 10 км слаб. дождь 9/5 1200 м
[Sc Ac As]
+16.6 +14.4 87 +17 +18 1015.0 1003.4 +16.6 0.7
07 10.07 СЗ 1 10 км слаб. дождь 9/4 1200 м
[Sc Ac As]
+16.0 +13.2 83 +17 +19 1015.0 1003.4
08 10.07 З 3 15 км в посл. час дождь 9/4 1200 м
[Sc Ac As]
+16.9 +12.6 76 +17 +19 1015.0 1003.4
09 10.07 З 3 10 км слаб. дождь 9/5 1200 м
[Sc Ac As]
+16.4 +13.8 85 +16 +19 1015.6 1004.0
10 10.07 З 4 15 км в посл. час дождь 9/4 400 м
[Sc Ac trans Ci sp]
+16.5 +13.6 83 +16 +20 1015.8 1004.2
11 10.07 З 5 15 км 9/4 1200 м
[Sc Ac trans Ci sp]
+16.1 +12.9 81 +15 +19 1015.8 1004.2
12 10.07 З 4 20 км {дождь} 9/0
[Ac trans Cs]
+16.6 +13.4 81 +16 +22 1015.1 1003.5 0.7
13 10.07 З 5 20 км 9/3 540 м
[Cu hum Ac trans Cs]
+16.9 +13.4 80 +16 +19 1015.3 1003.7
14 10.07 З 5 20 км 8/3 600 м
[Cu hum Ac trans Ci fib]
+17.7 +13.8 78 +17 +20 1015.0 1003.4
15 10.07 З 4 20 км 6/4 900 м
[Cu hum Ci fib]
+19.0 +13.9 72 +20 +22 1014.7 1003.2
16 10.07 ЮЗ 4 20 км 6/4 900 м
[Cu hum Ci fib]
+19.3 +13.0 67 +21 +22 комфорт 1014.5 1003.0
18 10.07 ЮЗ 2 10 км 5/0
[Ac trans]
+17.8 +13.1 74 +18 +18 1014.0 1002.5 +19.5 0.7
19 10.07 ЮЗ 2 10 км 3/0
[Ac trans]
+16.9 +12.7 76 +17 +17 1014.3 1002.7
20 10.07 ЮЗ 3 10 км ясно +16.1 +12.3 78 +16 +16 1014.8 1003.2
21 10.07 ЮЗ 3 10 км ясно +15.4 +12.2 81 +15 +15 1014.9 1003.2
22 10.07 ЮЗ 3 10 км ясно +14.7 +12.0 84 +14 +14 1015.0 1003.3
23 10.07 ЮЗ 2 10 км ясно +13.9 +11.7 87 +13 +13 1014.7 1003.0
00 11.07 З 2 10 км ясно +12.8 +11.4 91 +12 +12 1014.6 1002.8
01 11.07 ЮЗ 2 10 км ясно +12.3 +11.0 92 +11 +11 1014.4 1002.6
02 11.07 ЮЗ 2 10 км ясно +12.2 +11.0 92 +11 +11 1014.3 1002.5
03 11.07 ЮЗ 2 10 км ясно +11.7 +10.6 93 +10 +10 1014.4 1002.6
04 11.07 ЮЗ 2 15 км 1/0
[Ac trans]
+11.9 +10.5 91 +11 +11 1014.5 1002.7
05 11.07 ЮЗ 3 15 км 1/0
[Ac trans]
+12.3 +10.9 91 +11 +12 1014.6 1002.8
06 11.07 З 3 15 км 1/0
[Ac trans]
+15.1 +11.9 81 +14 +19 1014.9 1003.2 +11.6
07 11.07 З 2 20 км 1/0
[Ci fib]
+17.2 +11.6 70 +18 +27 1014.7 1003.1
08 11.07 З 2 20 км 1/0
[Ci fib]
+19.5 +11.2 59 +21 +34 комфорт 1014.6 1003.1
09 11.07 З 3 20 км 1/1 900 м
[Cu hum]
+20.9 +11.4 55 +23 +36 комфорт 1014.5 1003.1
10 11.07 З 4 20 км 4/4 1000 м
[Cu med, cong]
+22.2 +11.0 49 +24 +32 комфорт 1014.2 1002.8
11 11.07 СЗ 4 20 км 6/6 1000 м
[Cu med, cong]
+22.4 +11.2 49 +25 +30 комфорт 1013.8 1002.4
12 11.07 З 4 20 км 6/6 1200 м
[Cu med, cong]
+23.3 +11.1 46 +26 +30 жарко 1013.3 1001.9
13 11.07 З 4 20 км 6/6 1200 м
[Cu med, cong]
+23.8 +10.0 42 +25 +29 комфорт 1012.9 1001.6
14 11.07 СЗ 3 20 км 5/5 1200 м
[Cu med, cong]
+23.5 +9.0 40 +24 +29 комфорт 1012.7 1001.4
15 11.07 З 4 20 км 5/5 1500 м
[Cu med, cong]
+24.0 +9.7 40 +25 +27 комфорт 1012.6 1001.3
16 11.07 З 4 20 км 5/4 1500 м
[Cu med, cong Ci fib]
+23.8 +9.2 39 +25 +26 комфорт 1012.3 1001.0
17 11.07 З 3 20 км 5/3 1500 м
[Cu hum Ci fib]
+23.4 +9.5 41 +25 +25 комфорт 1012.3 1001.0
18 11.07 З 3 30 км ясно +21.3 +11.7 54 +23 +23 комфорт 1012.5 1001.1 +24.2
19 11.07 З 3 30 км 1/0
[Ac trans]
+19.2 +11.6 61 +20 +20 1012.8 1001.3
20 11.07 ЮЗ 3 30 км ясно +18.3 +11.3 64 +19 +19 1013.2 1001.7
21 11.07 ЮЗ 3 30 км ясно +17.2 +11.6 70 +17 +17 1013.4 1001.8
22 11.07 З 2 30 км ясно +15.8 +12.1 79 +16 +16 1013.7 1002.1
23 11.07 ЮЗ 1 30 км ясно +15.7 +11.8 78 +16 +16 1013.8 1002.2
00 12.07 ЮЗ 2 20 км ясно +15.8 +11.7 77 +16 +16 1013.6 1002.0
01 12.07 ЮЗ 3 20 км ясно +14.9 +11.3 79 +14 +14 1013.5 1001.8
02 12.07 штиль 0 20 км ясно +14.1 +11.3 83 +14 +14 1013.5 1001.8
03 12.07 ЮЗ 1 20 км ясно +14.5 +11.2 81 +15 +15 1013.8 1002.1
04 12.07 ЮЗ 1 20 км ясно +14.5 +11.3 81 +15 +16 1014.1 1002.4
05 12.07 ЮЗ 1 20 км ясно +15.0 +11.3 79 +16 +18 1014.3 1002.6
06 12.07 С 1 20 км 6/0
[Ci fib]
+18.0 +12.6 71 +19 +25 1014.2 1002.7 +13.0
07 12.07 В 1 20 км 6/0
[Ci fib]
+20.1 +12.7 62 +23 +33 комфорт 1014.2 1002.7
08 12.07 Ю 1 10 км 6/0
[Ac trans Ci fib]
+20.8 +12.3 58 +24 +36 комфорт 1014.0 1002.6
09 12.07 З 1 20 км 6/0
[Ac trans Ci sp]
+22.0 +12.0 53 +24 +39 комфорт 1014.2 1002.8
10 12.07 штиль 0 20 км 6/1 1500 м
[Cu hum Ci sp]
+23.0 +11.7 49 +25 +45 комфорт 1013.9 1002.5
11 12.07 штиль 0 20 км 6/3 1500 м
[Cu med, cong Ci sp]
+24.5 +11.7 45 +26 +42 жарко 1013.3 1002.0
12 12.07 СЗ 3 20 км 9/5 1200 м
[Cu med, cong Ci sp]
+25.8 +10.2 37 +27 +33 жарко 1012.8 1001.6
13 12.07 З 3 20 км 9/5 1200 м
[Cu med, cong Ci sp]
+24.5 +11.6 44 +26 +31 жарко 1012.8 1001.5
14 12.07 СЗ 1 20 км слаб. ливневой дождь 9/8 1200 м
[Cu med, cong Ci sp]
+21.0 +13.8 63 +25 +27 комфорт 1013.3 1001.9
15 12.07 С 2 20 км в посл. час ливневой дождь 9/3 1350 м
[Cu med, cong Ac As]
+19.7 +12.5 63 +22 +24 комфорт 1013.3 1001.8
16 12.07 СВ 2 20 км 9/0
[Ac As]
+19.7 +13.9 69 +22 +23 комфорт 1012.9 1001.4
17 12.07 В 2 20 км 9/0
[Ac As]
+19.9 +14.2 70 +23 +23 комфорт 1012.5 1001.1
18 12.07 штиль 0 20 км {ливн. осадки} 9/0
[Ac As]
+20.0 +13.4 66 +22 +22 комфорт 1012.6 1001.2 +25.8 0.2
19 12.07 В 2 20 км 9/0
[Ac trans]
+19.0 +14.1 73 +21 +21 комфорт 1012.6 1001.1
20 12.07 ЮВ 2 15 км 9/0 <50 м
[Ac trans]
+19.2 +14.2 73 +21 +21 комфорт 1012.7 1001.2
21 12.07 штиль 0 15 км 9/0
[Ac trans]
+19.4 +13.9 70 +21 +21 комфорт 1012.8 1001.3
22 12.07 З 1 15 км 6/0
[Ac trans Ci fib]
+17.6 +14.2 80 +19 +19 1012.8 1001.3
23 12.07 штиль 0 15 км 5/0
[Ac trans Ci fib]
+17.0 +13.4 79 +17 +17 1012.8 1001.2
00 13.07 СВ 1 15 км 5/0
[Ac trans Ci fib]
+15.4 +13.9 91 +16 +16 1012.4 1000.8
01 13.07 ЮВ 1 15 км 6/0
[Ac trans Ci fib]
+15.2 +13.3 88 +16 +16 1012.0 1000.4
02 13.07 ЮВ 1 10 км 6/0
[Ac trans Ci fib]
+14.5 +13.0 91 +15 +15 1011.7 1000.0
03 13.07 штиль 0 15 км 8/0
[Ac trans Ci sp]
+15.4 +13.4 88 +15 +15 1011.4 999.8
04 13.07 Ю 1 20 км 8/0
[Ac trans]
+17.0 +12.8 76 +18 +18 1011.0 999.5
05 13.07 З 1 20 км 8/0
[Ac trans]
+16.4 +12.7 79 +17 +19 1011.2 999.6
06 13.07 штиль 0 20 км 9/0
[Ac trans]
+17.4 +14.6 84 +17 +21 1011.3 999.8 +14.5
07 13.07 СВ 1 20 км 9/0
[Ac trans]
+18.7 +14.9 79 +21 +26 комфорт 1011.0 999.5
08 13.07 штиль 0 20 км 8/0
[Ac trans]
+20.6 +14.1 66 +23 +32 комфорт 1011.1 999.7
09 13.07 В 1 20 км 6/0
[Ac trans]
+22.7 +14.0 58 +26 +38 жарко 1010.5 999.2
10 13.07 В 1 20 км 8/0
[Ac trans Ci fib]
+24.4 +13.8 52 +27 +41 жарко 1010.2 999.0
11 13.07 ЮВ 1 20 км 8/0
[Ac trans Ci fib]
+24.3 +11.9 46 +26 +40 жарко 1010.3 999.0
12 13.07 Ю 1 20 км 9/0
[Ac trans Ci sp]
+24.5 +11.4 44 +26 +38 жарко 1009.9 998.6
13 13.07 штиль 0 20 км 9/0
[Ac trans Ci sp]
+25.0 +12.0 44 +27 +38 жарко 1009.3 998.0
14 13.07 З 2 30 км 9/3 1500 м
[Cu med, cong Ci sp]
+24.4 +12.6 48 +26 +32 жарко 1009.0 997.8
15 13.07 СЗ 2 30 км 9/3 1500 м
[Cu med, cong Cs]
+23.8 +15.1 58 +27 +30 жарко 1009.2 997.9
16 13.07 СЗ 1 20 км 9/4 1200 м
[Cu med, cong Ci sp]
+23.6 +14.9 58 +26 +28 жарко 1009.1 997.8
17 13.07 СЗ 2 10 км гроза, ливневой дождь 9/9 900 м
[Cb cap Ci sp]
+17.0 +14.5 85 +17 +17 1009.6 998.1
18 13.07 З 1 10 км в посл. час гроза {ливн. осадки} 9/3 1200 м
[Cu med, cong Ac trans Ci sp]
+17.6 +15.9 90 +19 +19 1010.1 998.6 +25.0 7
19 13.07 З 3 15 км 9/0
[Ac As]
+17.4 +15.5 89 +17 +17 1010.8 999.3
20 13.07 З 4 15 км 9/0
[Ac As]
+17.0 +15.6 91 +17 +17 1011.4 999.9
21 13.07 З 5 15 км 8/0
[Ac trans]
+16.6 +15.3 92 +16 +16 1011.3 999.7
22 13.07 З 5 15 км 8/4 1200 м
[Sc Ac trans]
+16.3 +15.0 92 +15 +15 1011.3 999.7
23 13.07 З 3 15 км 8/4 1200 м
[Sc Ac trans]
+16.1 +14.6 91 +16 +16 1011.1 999.5
00 14.07 З 4 15 км 8/4 1200 м
[Sc Ac trans]
+15.8 +14.3 91 +15 +15 1010.9 999.3
01 14.07 З 3 15 км 8/0
[Ac trans]
+15.5 +13.9 90 +15 +15 1010.5 998.9
02 14.07 З 4 15 км 8/8 1350 м
[Sc]
+15.2 +13.7 91 +14 +14 1010.4 998.8
03 14.07 З 3 15 км 8/8 240 м
[Sc]
+15.1 +13.6 91 +14 +14 1010.4 998.8
04 14.07 З 4 15 км 9/4 180 м
[Frnb Ac trans]
+15.1 +13.8 92 +14 +14 1010.2 998.6
05 14.07 З 4 15 км 9/5 180 м
[Frnb Ac trans]
+15.5 +14.2 92 +14 +15 1010.3 998.7
06 14.07 З 3 10 км 9/9 210 м
[Sc]
+16.3 +14.7 90 +16 +16 1010.5 998.9 +15.0
07 14.07 З 5 10 км 9/9 270 м
[Frnb]
+17.5 +15.2 86 +17 +17 1010.5 999.0
08 14.07 З 4 10 км 9/9 400 м
[Sc]
+17.9 +15.1 84 +18 +19 1010.6 999.1
09 14.07 СЗ 3 10 км 8/8 600 м
[Sc]
+19.5 +15.0 75 +22 +24 комфорт 1010.6 999.2
10 14.07 СЗ 5 10 км 8/8 900 м
[Cu Sc]
+20.7 +14.6 68 +23 +25 комфорт 1010.5 999.1
11 14.07 СЗ 3 15 км 5/5 900 м
[Cu med, cong]
+21.0 +14.5 66 +24 +32 комфорт 1010.3 998.9
12 14.07 СЗ 5 15 км 5/5 1200 м
[Cu med, cong]
+22.5 +14.8 62 +26 +31 жарко 1009.8 998.5
13 14.07 СЗ 5 15 км 4/4 1200 м
[Cu med, cong]
+23.4 +14.6 58 +27 +32 душно 1009.5 998.2
14 14.07 СЗ 5 15 км 4/4 1200 м
[Cu med, cong]
+24.0 +13.6 52 +26 +29 жарко 1009.4 998.2
15 14.07 СЗ 3 15 км 4/4 1200 м
[Cu med, cong]
+23.7 +14.4 56 +26 +29 жарко 1009.3 998.0
16 14.07 З 5 15 км 4/4 1500 м
[Cu med, cong]
+23.1 +15.4 62 +27 +28 душно 1009.3 998.0
17 14.07 З 5 20 км 5/5 1200 м
[Cu med, cong]
+21.9 +16.0 69 +26 +26 душно 1009.4 998.1
18 14.07 ЮЗ 2 15 км в посл. час гроза 8/4 1380 м
[Cu med, cong Ac trans]
+18.5 +16.3 87 +20 +20 1010.5 999.0 +24.2 4
19 14.07 З 2 15 км 6/0
[Ac trans]
+17.9 +15.8 88 +18 +18 1011.0 999.5
20 14.07 З 3 15 км 6/3 1500 м
[Sc Ac trans]
+17.2 +15.9 92 +17 +17 1011.3 999.8
21 14.07 З 3 15 км 3/0
[Ac trans]
+16.3 +15.0 92 +16 +16 1011.4 999.8
22 14.07 З 2 15 км ясно +15.9 +14.9 94 +16 +16 1011.5 999.9
23 14.07 З 1 10 км ясно +15.6 +14.5 93 +16 +16 1011.3 999.7
00 15.07 З 2 8000 м дымка ясно +14.7 +14.1 96 +14 +14 1011.2 999.6
01 15.07 З 2 7000 м дымка 3/3 90 м
[St]
+14.5 +14.0 97 +14 +14 1011.1 999.5
02 15.07 ЮЗ 2 7000 м дымка 5/5 1000 м
[Sc]
+14.7 +14.2 97 +14 +14 1011.2 999.6
03 15.07 штиль 0 4500 м дымка 4/4 1200 м
[Sc]
+14.2 +13.6 96 +14 +14 1011.3 999.6
04 15.07 З 1 4500 м дымка 3/3 1200 м
[Sc]
+14.3 +13.8 97 +15 +15 1011.3 999.6
05 15.07 З 2 2000 м дымка 5/5 60 м
[Sc]
+14.5 +14.0 97 +14 +15 1011.3 999.7
06 15.07 СЗ 1 10 км дымка 6/6 180 м
[Sc]
+16.9 +14.7 87 +18 +20 1011.9 1000.3 +14.1
07 15.07 С 1 10 км 5/5 700 м
[St]
+18.8 +14.6 77 +21 +26 комфорт 1011.7 1000.2
08 15.07 С 1 10 км 5/5 700 м
[Cu hum]
+20.5 +14.4 68 +24 +32 комфорт 1011.9 1000.5
09 15.07 З 3 10 км 6/6 1000 м
[Cu med, cong]
+21.0 +14.5 66 +24 +30 комфорт 1012.0 1000.6
10 15.07 СЗ 2 15 км 6/6 1200 м
[Cu med, cong]
+22.5 +13.3 56 +25 +33 комфорт 1011.8 1000.5
11 15.07 С 2 15 км 6/6 1300 м
[Cu med, cong]
+22.7 +12.6 53 +25 +33 комфорт 1011.8 1000.5
12 15.07 С 3 20 км 5/5 1300 м
[Cu med, cong]
+24.0 +12.8 50 +26 +33 жарко 1011.6 1000.3
13 15.07 СЗ 3 20 км 4/4 1500 м
[Cu med, cong]
+24.3 +11.9 46 +26 +33 жарко 1011.4 1000.1
14 15.07 С 4 20 км 5/5 1500 м
[Cu med, cong]
+24.1 +12.4 48 +26 +29 жарко 1011.4 1000.1
15 15.07 С 4 20 км 4/4 1500 м
[Cu med, cong]
+24.7 +12.0 45 +26 +29 жарко 1011.1 999.8
16 15.07 С 4 20 км 3/3 1500 м
[Cu hum]
+24.3 +11.3 44 +26 +27 жарко 1011.1 999.8
17 15.07 С 3 20 км 3/3 1500 м
[Cu hum]
+24.0 +11.5 45 +25 +26 комфорт 1011.2 999.9
18 15.07 С 2 20 км 5/0
[Ci sp]
+21.5 +11.8 54 +24 +24 комфорт 1011.7 1000.3 +25.0
19 15.07 СЗ 1 15 км 5/0
[Ci sp]
+19.6 +13.0 66 +22 +22 комфорт 1012.0 1000.5
20 15.07 СЗ 1 10 км 5/0
[Ci sp]
+18.2 +13.1 72 +20 +20 1012.3 1000.8
21 15.07 СЗ 1 10 км 4/0
[Ci sp]
+17.9 +12.7 72 +19 +19 1012.6 1001.1
22 15.07 СЗ 1 10 км 6/0
[Ci sp]
+17.3 +12.2 72 +18 +18 1012.8 1001.3
23 15.07 штиль 0 10 км 6/0
[Ci sp]
+16.5 +11.8 74 +16 +16 1012.9 1001.3
00 16.07 штиль 0 10 км 6/0
[Ci sp]
+16.6 +12.0 74 +17 +17 1012.9 1001.3
01 16.07 Ю 1 10 км 8/0
[Ci sp]
+14.7 +12.1 84 +15 +15 1012.8 1001.1
02 16.07 ЮЗ 1 10 км 8/0
[Ci sp]
+14.0 +12.3 89 +14 +14 1012.7 1001.0
03 16.07 ЮЗ 1 10 км 5/0
[Ci sp]
+13.9 +11.9 88 +14 +14 1012.6 1000.9
04 16.07 ЮЗ 1 10 км 8/0
[Ci sp]
+14.2 +12.6 90 +14 +15 1012.7 1001.0
05 16.07 ЮЗ 2 8000 м дымка 8/0
[Ci sp]
+14.6 +13.0 90 +14 +16 1012.9 1001.2
06 16.07 штиль 0 10 км 5/0
[Ci sp]
+16.1 +14.3 89 +16 +22 1013.1 1001.5 +13.6
07 16.07 штиль 0 20 км 4/0
[Ci sp]
+19.3 +13.4 69 +21 +32 комфорт 1013.0 1001.5
08 16.07 штиль 0 20 км 3/0
[Ci sp]
+21.4 +11.5 53 +23 +40 комфорт 1013.0 1001.6
09 16.07 штиль 0 20 км ясно +23.5 +10.0 42 +25 +46 комфорт 1012.9 1001.6
10 16.07 СВ 3 20 км 3/3 1500 м
[Cu hum]
+24.6 +10.1 40 +26 +36 жарко 1012.7 1001.4
11 16.07 С 3 10 км 5/5 1500 м
[Cu hum]
+25.5 +8.9 35 +26 +34 жарко 1012.5 1001.2

 

Местоположение метеостанции Белград аэропорт (Сербия): широта 44.82 долгота 20.28 высота над уровнем моря 99 м.

В архиве по умолчанию представлена погода в Белград аэропорту за последнюю неделю. Архивные данные за месяц целиком и за предыдущие месяцы, начиная с января 2011 года, Вы можете получить, выбрав интересующий диапазон дат из раскрывающегося списка и нажав кнопку "Ввод!".


*Определитесь, кто Вы:
робот инопланетянин человек

Внимание! Время в таблицах - всемирное. Для получения местного времени необходимо прибавить поправку, которая равна 1 ч.

Смотрите также архив погоды в соседних городах и на ближайших метеорологических станциях:

Погода в Белграде (Сербия) (15 км)
Погода в Зренянине (Сербия) (62 км)
Погода в Валево (Сербия) (63 км)
Погода в Банатски-Карловаце (Сербия) (64 км)
Погода в Сремска-Митровице (Сербия) (65 км)
Погода в Нови-Саде (Сербия) (66 км)
Погода в Смедеревска-Паланке (Сербия) (73 км)
Погода в Лознице (Сербия) (88 км)
Погода в Вршаце (Сербия) (90 км)
Погода в Банлоке (Румыния) (91 км)

Пояснения к столбцам:

Ветер - указаны скорость ветра в м/с - средняя за 10 мин, порывы в срок и между сроками (в фигурных скобках) и направление, откуда дует ветер: С - северный, СВ - северо-восточный, В - восточный, ЮВ - юго-восточный, Ю - южный, ЮЗ - юго-западный, З - западный, СЗ - северо-западный.
Видимость - горизонтальная дальность видимости в метрах или километрах. При видимости от 1 до 10 км при отсутствии осадков обычно наблюдается дымка, при ухудшении видимости до 1 км и менее - туман. В сухую погоду видимость может ухудшаться дымом, пылью или мглою.
Явления - указаны атмосферные явления, наблюдавшиеся в срок или в последний час перед сроком; фигурными скобками обозначены явления, наблюдавшиеся между сроками (за 1-3 часа до срока); квадратными скобками обозначены град или гололедные отложения с указанием их диаметра в мм.
Облачность - указаны через наклонную черту общая и нижняя облачность в баллах и высота нижней границы облаков в метрах; квадратными скобками обозначены формы облаков: Ci - перистые, Cs - перисто-слоистые, Cc - перисто-кучевые, Ac - высококучевые, As - высокослоистые, Sc - слоисто-кучевые, Ns - слоисто-дождевые, Cu - кучевые, Cb - кучево-дождевые. Подробнее классификацию облаков см. в Атласе облаков (PDF).
T - Температура воздуха - температура, измеренная на высоте 2 м над землей.
Td - Температура точки росы - температура, при понижении до которой содержащийся в воздухе водяной пар достигнет насыщения.
f - Относительная влажность воздуха - влажноcть воздуха, измеренная на высоте 2 м над землей.
Te - Эффективная температура - температура, которую ощущает одетый по сезону человек в тени. Характеристика душности погоды. При расчете учитывается влияние влажности воздуха и скорости ветра на теплоощущения человека.
Tes - Эффективная температура на солнце - температура, которую ощущает человек, с поправкой на солнечный нагрев. Характеристика знойности погоды. Зависит от высоты солнца над горизонтом, облачности и скорости ветра. Ночью, в пасмурную погоду, а также при ветре 12 м/с и более поправка равна нулю.
P - Атмосферное давление - приведенное к уровню моря атмосферное давление.
Po - Атмосферное давление - измеренное на уровне метеостанции атмосферное давление.
Tmin - Минимальная температура - минимум температуры воздуха на высоте 2 м над землей.
Tmax - Максимальная температура - максимум температуры воздуха на высоте 2 м над землей.
R - Количество осадков - Количество выпавших осадков за период времени, мм. При наведении курсора мыши на число - период времени, за который выпало указанное количество осадков.
R24 - Количество осадков - Количество выпавших осадков за 24 часа, мм.
S - Снежный покров - Высота снежного покрова, см. При наведении курсора мыши на число - состояние снежного покрова и степень покрытия местности в баллах.